Find Starlink 3820

NORAD ID: 52364 Int'l Des: 2022-045 Owner: SPXS Country: US Constellation: starlink operational
LEOCIRCULAR

Aktuelle Ansicht

3D-Globus wird geladen...

Über Starlink 3820

Beschreibung wird geladen...

Nächste Überflüge

Passes for default location (London). Set your location on the main map for personalized predictions.

Höhenverlauf

Loading altitude history...

Zweizeiliger Elementsatz

1 52364U 22045AK 26145.54303854 -.00001311 00000-0 -64323-4 0 9993
2 52364 53.2097 204.0244 0001248 103.0775 257.0356 15.08835550227528
Epoch: 25. Mai 2026 • Age: 22 hours

Aktueller Status

Höhe 542.5 km
Geschwindigkeit 7.59 km/s
Subsatellitenpunkt -10.29°S, 14.51°W
Startdatum 29. Apr. 2022
Alter 4 years
Typ internet

Technische Details

Klassifizierung Payload
Masse 297.00 kg
Trockenmasse 275.00 kg
Gesamtmasse 297.00 kg
Länge 0.20 m
Durchmesser 2.80 m
Spannweite 9.00 m
Form Box + pan
Hersteller SPXS
Bus-Typ Starlink
Phasenstatus In Orbit
Besitzer/Staat SPXS/US

Most Searched